sat.trackr.live / text

‹ back to catalog

QIANFAN-39

NORAD 62240 · 2024-232D

PAYLOAD ACTIVE UNKNOWN

§ Identity

Operator
Country
PRC
Launch date
2024-12-05
Launch site
TAISC
Launch vehicle
Mass (kg)
RCS (m²)

External: N2YO · Heavens-Above · Gunter

§ Orbital elements

Epoch: 2026-05-25T03:01:29.817120Z

Period
101.02 min
Inclination
89.0081°
Eccentricity
0.0013745
Mean motion
14.25511828 rev/d
Perigee alt
796.9 km
Apogee alt
816.6 km
Semi-major
7,184.9 km
B*
1.2202e-4
RAAN
18.6912°
Arg perigee
263.8624°
Mean anomaly
96.1003°
Rev number
12,466

§ Raw data

QIANFAN-391 62240U 24232D   26145.12603955  .00000303  00000+0  12202-3 0  99912 62240  89.0081  18.6912 0013745 263.8624  96.1003 14.25511828124665

JSON: /api/v1/satellites/62240 · /tle

For live sub-satellite position, see the globe view (requires WebGL).

§ Visibility from observer

Set your observer location to see the next 7 days of passes ≥ 10°. The values pass through the URL so the page stays shareable.

No JS? Fill the form by hand. The geolocation button needs JavaScript.